When you browse on this site, cookies collect data to enhance your experience and personalize the content and advertising you see.
Visit our Privacy Policy to learn more. By continuing to use the site, you agree to this use of cookies and data.
  • In Lithuania
  • List of Countries
  • For 7 days
  • Water Temperature
  • Satellite Maps
  • Weather Map
  • Weather Widgets
  • user-avatar
    Login

    Hourly Weather Ostrezna

    Today, 19 November, Monday

    Time Temperature Precipitation Wind Pressure Humidity
    00:00 0°C° 0.1 mm 1 mps 743 mmHg 69%
    01:00 0°C° 0 mm 1 mps 742 mmHg 81%
    02:00 -2°C° 0.1 mm 2 mps 742 mmHg 83%
    03:00 -1°C° 0.1 mm 2 mps 742 mmHg 86%
    04:00 -1°C° 0.1 mm 2 mps 742 mmHg 88%
    05:00 -1°C° 0.1 mm 3 mps 742 mmHg 88%
    06:00 -1°C° 0.1 mm 3 mps 741 mmHg 88%
    07:00 -1°C° 0 mm 3 mps 741 mmHg 89%
    08:00 0°C° 0.1 mm 3 mps 741 mmHg 85%
    09:00 -1°C° 0.1 mm 4 mps 742 mmHg 82%
    10:00 -1°C° 0.1 mm 5 mps 742 mmHg 78%
    11:00 0°C° 0 mm 5 mps 742 mmHg 74%
    12:00 0°C° 0 mm 5 mps 742 mmHg 70%
    13:00 0°C° 0 mm 5 mps 742 mmHg 66%
    14:00 0°C° 0 mm 5 mps 742 mmHg 68%
    15:00 -1°C° 0 mm 4 mps 742 mmHg 71%
    16:00 -1°C° 0 mm 4 mps 742 mmHg 73%
    17:00 -2°C° 0 mm 4 mps 742 mmHg 73%
    18:00 -2°C° 0 mm 4 mps 742 mmHg 73%
    19:00 -2°C° 0 mm 5 mps 742 mmHg 74%
    20:00 -3°C° 0 mm 4 mps 742 mmHg 75%
    21:00 -3°C° 0 mm 4 mps 742 mmHg 76%
    22:00 -3°C° 0 mm 4 mps 742 mmHg 77%
    23:00 -3°C° 0 mm 4 mps 742 mmHg 78%

    Tomorrow, 20 November, Tuesday

    Time Temperature Precipitation Wind Pressure Humidity
    00:00 -3°C° 0 mm 4 mps 742 mmHg 79%
    01:00 -3°C° 0 mm 4 mps 742 mmHg 80%
    02:00 -3°C° 0 mm 4 mps 742 mmHg 80%
    03:00 -3°C° 0 mm 4 mps 741 mmHg 80%
    04:00 -2°C° 0 mm 4 mps 741 mmHg 80%
    05:00 -2°C° 0 mm 4 mps 741 mmHg 81%
    06:00 -2°C° 0 mm 4 mps 741 mmHg 82%
    07:00 -2°C° 0 mm 4 mps 741 mmHg 82%
    08:00 -2°C° 0 mm 4 mps 741 mmHg 80%
    09:00 -1°C° 0 mm 5 mps 740 mmHg 78%
    10:00 -1°C° 0 mm 5 mps 740 mmHg 76%
    11:00 -1°C° 0.1 mm 5 mps 739 mmHg 74%
    12:00 0°C° 0.1 mm 5 mps 739 mmHg 73%
    13:00 0°C° 0.1 mm 5 mps 739 mmHg 72%
    14:00 0°C° 0.3 mm 5 mps 738 mmHg 74%
    15:00 0°C° 0.3 mm 4 mps 738 mmHg 76%
    16:00 0°C° 0.3 mm 4 mps 738 mmHg 79%
    17:00 0°C° 0.5 mm 4 mps 738 mmHg 81%
    18:00 -1°C° 0.5 mm 4 mps 738 mmHg 84%
    19:00 0°C° 0.5 mm 3 mps 738 mmHg 86%
    20:00 0°C° 0.1 mm 3 mps 738 mmHg 88%
    21:00 0°C° 0.1 mm 3 mps 739 mmHg 89%
    22:00 0°C° 0.1 mm 3 mps 739 mmHg 91%
    23:00 0°C° 0 mm 3 mps 739 mmHg 91%

    Day after tomorrow, 21 November, Wednesday

    Time Temperature Precipitation Wind Pressure Humidity
    00:00 +1°C° 0 mm 2 mps 739 mmHg 92%
    01:00 +1°C° 0 mm 2 mps 739 mmHg 93%
    02:00 +1°C° 0 mm 2 mps 740 mmHg 93%
    03:00 +1°C° 0 mm 2 mps 740 mmHg 93%
    04:00 +1°C° 0 mm 2 mps 740 mmHg 93%
    05:00 +1°C° 0 mm 2 mps 740 mmHg 93%
    06:00 +1°C° 0 mm 2 mps 740 mmHg 93%
    07:00 +1°C° 0 mm 2 mps 741 mmHg 93%
    08:00 +1°C° 0 mm 2 mps 741 mmHg 92%
    09:00 +1°C° 0 mm 3 mps 742 mmHg 91%
    10:00 +1°C° 0 mm 3 mps 742 mmHg 89%
    11:00 +1°C° 0 mm 3 mps 742 mmHg 89%
    12:00 +1°C° 0 mm 3 mps 742 mmHg 88%
    13:00 +2°C° 0 mm 3 mps 742 mmHg 87%
    14:00 +1°C° 0 mm 3 mps 743 mmHg 87%
    15:00 +1°C° 0 mm 3 mps 743 mmHg 88%
    16:00 +1°C° 0 mm 3 mps 743 mmHg 89%
    17:00 +1°C° 0 mm 3 mps 743 mmHg 88%
    18:00 0°C° 0 mm 3 mps 743 mmHg 88%
    19:00 0°C° 0 mm 3 mps 744 mmHg 88%
    20:00 0°C° 0 mm 3 mps 744 mmHg 88%
    21:00 0°C° 0 mm 3 mps 744 mmHg 87%
    22:00 0°C° 0 mm 3 mps 744 mmHg 87%
    23:00 0°C° 0 mm 3 mps 744 mmHg 87%

    22 November, Thursday

    Time Temperature Precipitation Wind Pressure Humidity
    00:00 -1°C° 0 mm 3 mps 744 mmHg 87%
    01:00 -1°C° 0 mm 3 mps 744 mmHg 87%
    02:00 -1°C° 0 mm 3 mps 744 mmHg 87%
    03:00 -1°C° 0 mm 3 mps 744 mmHg 88%
    04:00 -2°C° 0 mm 3 mps 744 mmHg 88%
    05:00 -2°C° 0 mm 3 mps 744 mmHg 88%
    06:00 -2°C° 0 mm 3 mps 744 mmHg 88%
    07:00 -2°C° 0 mm 3 mps 744 mmHg 88%
    08:00 -1°C° 0 mm 3 mps 745 mmHg 86%
    09:00 -1°C° 0 mm 3 mps 745 mmHg 85%
    10:00 0°C° 0 mm 3 mps 745 mmHg 84%
    11:00 +2°C° 0 mm 2 mps 745 mmHg 83%
    12:00 +2°C° 0 mm 2 mps 745 mmHg 83%
    13:00 +3°C° 0 mm 2 mps 745 mmHg 82%
    14:00 +2°C° 0 mm 2 mps 745 mmHg 84%
    15:00 +2°C° 0 mm 2 mps 745 mmHg 86%
    16:00 +2°C° 0 mm 2 mps 745 mmHg 89%
    17:00 +1°C° 0 mm 2 mps 745 mmHg 89%
    18:00 +1°C° 0 mm 2 mps 746 mmHg 90%
    19:00 -1°C° 0 mm 2 mps 746 mmHg 90%
    20:00 +1°C° 0 mm 1 mps 746 mmHg 90%
    21:00 +1°C° 0 mm 1 mps 746 mmHg 90%
    22:00 +1°C° 0 mm 1 mps 746 mmHg 90%
    23:00 +1°C° 0 mm 1 mps 747 mmHg 90%

    23 November, Friday

    Time Temperature Precipitation Wind Pressure Humidity
    00:00 +1°C° 0 mm 1 mps 747 mmHg 90%
    01:00 +1°C° 0 mm 1 mps 747 mmHg 90%
    02:00 +1°C° 0 mm 1 mps 747 mmHg 90%
    03:00 +1°C° 0 mm 1 mps 747 mmHg 90%
    04:00 +1°C° 0 mm 1 mps 747 mmHg 90%
    05:00 +1°C° 0 mm 1 mps 747 mmHg 90%
    06:00 +1°C° 0 mm 2 mps 747 mmHg 91%
    07:00 +1°C° 0 mm 2 mps 747 mmHg 91%
    08:00 +2°C° 0 mm 2 mps 747 mmHg 89%
    09:00 +3°C° 0 mm 2 mps 747 mmHg 86%
    10:00 +4°C° 0 mm 2 mps 748 mmHg 84%
    11:00 +5°C° 0 mm 2 mps 747 mmHg 82%
    12:00 +6°C° 0 mm 2 mps 747 mmHg 81%
    13:00 +7°C° 0 mm 2 mps 747 mmHg 80%
    14:00 +6°C° 0 mm 2 mps 747 mmHg 83%
    15:00 +5°C° 0 mm 2 mps 747 mmHg 87%
    16:00 +4°C° 0 mm 2 mps 747 mmHg 90%
    17:00 +4°C° 0 mm 2 mps 746 mmHg 91%
    18:00 +4°C° 0 mm 2 mps 746 mmHg 91%
    19:00 +3°C° 0 mm 2 mps 746 mmHg 91%
    20:00 +3°C° 0 mm 2 mps 746 mmHg 91%
    21:00 +2°C° 0 mm 3 mps 746 mmHg 91%
    22:00 +2°C° 0 mm 3 mps 746 mmHg 91%
    23:00 +2°C° 0 mm 3 mps 746 mmHg 91%

    24 November, Saturday

    Time Temperature Precipitation Wind Pressure Humidity
    00:00 +2°C° 0 mm 3 mps 745 mmHg 91%
    01:00 +2°C° 0 mm 3 mps 745 mmHg 91%
    02:00 +2°C° 0 mm 3 mps 745 mmHg 91%
    03:00 +3°C° 0 mm 2 mps 744 mmHg 91%
    04:00 +3°C° 0 mm 2 mps 744 mmHg 91%
    05:00 +3°C° 0 mm 2 mps 744 mmHg 91%
    06:00 +2°C° 0 mm 2 mps 744 mmHg 91%
    07:00 +2°C° 0 mm 2 mps 743 mmHg 91%
    08:00 +3°C° 0 mm 2 mps 743 mmHg 88%
    09:00 +4°C° 0 mm 2 mps 743 mmHg 85%
    10:00 +5°C° 0 mm 2 mps 743 mmHg 82%
    11:00 +6°C° 0 mm 2 mps 743 mmHg 80%
    12:00 +7°C° 0 mm 2 mps 742 mmHg 77%
    13:00 +7°C° 0 mm 2 mps 742 mmHg 74%
    14:00 +6°C° 0 mm 2 mps 742 mmHg 78%
    15:00 +6°C° 0 mm 2 mps 742 mmHg 81%
    16:00 +5°C° 0 mm 2 mps 742 mmHg 85%
    17:00 +5°C° 0 mm 2 mps 742 mmHg 86%
    18:00 +4°C° 0 mm 2 mps 741 mmHg 86%
    19:00 +4°C° 0 mm 2 mps 741 mmHg 87%
    20:00 +4°C° 0 mm 2 mps 741 mmHg 88%
    21:00 +4°C° 0 mm 2 mps 741 mmHg 89%
    22:00 +3°C° 0 mm 2 mps 741 mmHg 89%
    23:00 +3°C° 0 mm 2 mps 741 mmHg 90%
    Show more